When you browse on this site, cookies collect data to enhance your experience and personalize the content and advertising you see.
Visit our Privacy Policy to learn more. By continuing to use the site, you agree to this use of cookies and data.
  • în România
  • Lista ţărilor
  • Pe 7 zile
  • Temperatura apei
  • Hartă satelitară
  • Meteo pe hartă
  • Widget-uri
  • user-avatar
    Intrare

    Meteo pe oră la Stepanakert

    Astăzi, 16 Iunie, Duminică

    Timp Temperatura Precipitaţii Vânt Presiune Umiditate
    00:00 +21°C° 0 mm 1 m/s 691 mmHg 66%
    01:00 +20°C° 0 mm 1 m/s 691 mmHg 66%
    02:00 +20°C° 0 mm 1 m/s 691 mmHg 66%
    03:00 +20°C° 0 mm 1 m/s 691 mmHg 66%
    04:00 +21°C° 0 mm 1 m/s 691 mmHg 66%
    05:00 +21°C° 0 mm 1 m/s 691 mmHg 66%
    06:00 +22°C° 0 mm 1 m/s 691 mmHg 66%
    07:00 +24°C° 0 mm 1 m/s 691 mmHg 61%
    08:00 +25°C° 0 mm 1 m/s 692 mmHg 56%
    09:00 +27°C° 0 mm 2 m/s 692 mmHg 50%
    10:00 +27°C° 0 mm 2 m/s 691 mmHg 49%
    11:00 +28°C° 0 mm 2 m/s 691 mmHg 48%
    12:00 +29°C° 0 mm 2 m/s 691 mmHg 46%
    13:00 +30°C° 0 mm 2 m/s 690 mmHg 46%
    14:00 +30°C° 0 mm 2 m/s 690 mmHg 46%
    15:00 +30°C° 0 mm 2 m/s 690 mmHg 46%
    16:00 +29°C° 0.4 mm 2 m/s 690 mmHg 52%
    17:00 +29°C° 0.4 mm 1 m/s 689 mmHg 57%
    18:00 +28°C° 0.4 mm 1 m/s 689 mmHg 62%
    19:00 +26°C° 0.1 mm 1 m/s 689 mmHg 63%
    20:00 +25°C° 0.1 mm 2 m/s 689 mmHg 65%
    21:00 +23°C° 0.1 mm 2 m/s 689 mmHg 66%
    22:00 +23°C° 0 mm 2 m/s 689 mmHg 65%
    23:00 +23°C° 0 mm 2 m/s 689 mmHg 63%

    Mâine, 17 Iunie, Luni

    Timp Temperatura Precipitaţii Vânt Presiune Umiditate
    00:00 +21°C° 0 mm 2 m/s 689 mmHg 62%
    01:00 +21°C° 0 mm 2 m/s 689 mmHg 61%
    02:00 +21°C° 0 mm 2 m/s 689 mmHg 60%
    03:00 +21°C° 0 mm 2 m/s 689 mmHg 59%
    04:00 +22°C° 0 mm 1 m/s 689 mmHg 61%
    05:00 +23°C° 0 mm 1 m/s 689 mmHg 62%
    06:00 +24°C° 0 mm 1 m/s 689 mmHg 63%
    07:00 +25°C° 0 mm 1 m/s 689 mmHg 59%
    08:00 +27°C° 0 mm 1 m/s 690 mmHg 55%
    09:00 +28°C° 0 mm 2 m/s 690 mmHg 51%
    10:00 +29°C° 0 mm 2 m/s 690 mmHg 51%
    11:00 +30°C° 0 mm 2 m/s 690 mmHg 51%
    12:00 +30°C° 0 mm 2 m/s 689 mmHg 50%
    13:00 +30°C° 0.5 mm 2 m/s 689 mmHg 53%
    14:00 +30°C° 0.5 mm 2 m/s 689 mmHg 55%
    15:00 +30°C° 0.5 mm 1 m/s 688 mmHg 57%
    16:00 +29°C° 0.4 mm 1 m/s 688 mmHg 59%
    17:00 +29°C° 0.4 mm 1 m/s 688 mmHg 60%
    18:00 +29°C° 0.4 mm 1 m/s 688 mmHg 61%
    19:00 +27°C° 0.3 mm 1 m/s 689 mmHg 63%
    20:00 +26°C° 0.3 mm 2 m/s 689 mmHg 65%
    21:00 +24°C° 0.3 mm 2 m/s 689 mmHg 66%
    22:00 +24°C° 0.1 mm 1 m/s 689 mmHg 67%
    23:00 +23°C° 0.1 mm 1 m/s 690 mmHg 67%

    Poimâine, 18 Iunie, Marţi

    Timp Temperatura Precipitaţii Vânt Presiune Umiditate
    00:00 +23°C° 0.1 mm 1 m/s 690 mmHg 68%
    01:00 +22°C° 0 mm 1 m/s 689 mmHg 69%
    02:00 +22°C° 0 mm 1 m/s 689 mmHg 70%
    03:00 +21°C° 0 mm 1 m/s 689 mmHg 71%
    04:00 +22°C° 0 mm 1 m/s 690 mmHg 69%
    05:00 +23°C° 0 mm 1 m/s 690 mmHg 68%
    06:00 +23°C° 0 mm 1 m/s 690 mmHg 67%
    07:00 +25°C° 0 mm 1 m/s 690 mmHg 62%
    08:00 +26°C° 0 mm 2 m/s 690 mmHg 56%
    09:00 +27°C° 0 mm 2 m/s 691 mmHg 51%
    10:00 +28°C° 0.1 mm 2 m/s 690 mmHg 49%
    11:00 +29°C° 0.1 mm 2 m/s 690 mmHg 46%
    12:00 +30°C° 0.1 mm 3 m/s 690 mmHg 44%
    13:00 +30°C° 0.3 mm 3 m/s 690 mmHg 44%
    14:00 +30°C° 0.3 mm 3 m/s 689 mmHg 44%
    15:00 +30°C° 0.3 mm 3 m/s 689 mmHg 44%
    16:00 +30°C° 0.1 mm 3 m/s 689 mmHg 48%
    17:00 +29°C° 0.1 mm 2 m/s 689 mmHg 51%
    18:00 +28°C° 0.1 mm 2 m/s 689 mmHg 55%
    19:00 +26°C° 0.2 mm 2 m/s 689 mmHg 57%
    20:00 +24°C° 0.2 mm 2 m/s 689 mmHg 60%
    21:00 +23°C° 0.2 mm 2 m/s 689 mmHg 62%
    22:00 +21°C° 0.1 mm 2 m/s 689 mmHg 61%
    23:00 +21°C° 0.1 mm 2 m/s 690 mmHg 59%

    19 Iunie, Miercuri

    Timp Temperatura Precipitaţii Vânt Presiune Umiditate
    00:00 +21°C° 0.1 mm 2 m/s 690 mmHg 58%
    01:00 +20°C° 0 mm 2 m/s 690 mmHg 58%
    02:00 +20°C° 0 mm 2 m/s 689 mmHg 58%
    03:00 +20°C° 0 mm 2 m/s 689 mmHg 59%
    04:00 +20°C° 0 mm 2 m/s 690 mmHg 60%
    05:00 +21°C° 0 mm 2 m/s 690 mmHg 61%
    06:00 +22°C° 0 mm 1 m/s 690 mmHg 63%
    07:00 +24°C° 0 mm 2 m/s 690 mmHg 56%
    08:00 +25°C° 0 mm 2 m/s 690 mmHg 49%
    09:00 +27°C° 0 mm 2 m/s 691 mmHg 42%
    10:00 +28°C° 0 mm 2 m/s 691 mmHg 41%
    11:00 +28°C° 0 mm 2 m/s 690 mmHg 40%
    12:00 +29°C° 0 mm 3 m/s 690 mmHg 39%
    13:00 +29°C° 0 mm 3 m/s 690 mmHg 39%
    14:00 +30°C° 0 mm 3 m/s 690 mmHg 39%
    15:00 +30°C° 0 mm 3 m/s 689 mmHg 39%
    16:00 +29°C° 0 mm 3 m/s 689 mmHg 43%
    17:00 +29°C° 0 mm 3 m/s 689 mmHg 46%
    18:00 +28°C° 0 mm 2 m/s 689 mmHg 50%
    19:00 +26°C° 0 mm 2 m/s 689 mmHg 52%
    20:00 +24°C° 0 mm 2 m/s 689 mmHg 53%
    21:00 +21°C° 0 mm 2 m/s 689 mmHg 55%
    22:00 +21°C° 0 mm 2 m/s 689 mmHg 55%
    23:00 +20°C° 0 mm 2 m/s 689 mmHg 55%

    20 Iunie, Joi

    Timp Temperatura Precipitaţii Vânt Presiune Umiditate
    00:00 +20°C° 0 mm 2 m/s 690 mmHg 54%
    01:00 +20°C° 0 mm 2 m/s 689 mmHg 54%
    02:00 +20°C° 0 mm 2 m/s 689 mmHg 54%
    03:00 +20°C° 0 mm 1 m/s 689 mmHg 54%
    04:00 +21°C° 0 mm 1 m/s 689 mmHg 55%
    05:00 +22°C° 0 mm 1 m/s 689 mmHg 56%
    06:00 +22°C° 0 mm 1 m/s 689 mmHg 57%
    07:00 +24°C° 0 mm 2 m/s 690 mmHg 51%
    08:00 +26°C° 0 mm 2 m/s 690 mmHg 45%
    09:00 +27°C° 0 mm 2 m/s 690 mmHg 39%
    10:00 +28°C° 0 mm 2 m/s 690 mmHg 38%
    11:00 +29°C° 0 mm 2 m/s 690 mmHg 36%
    12:00 +29°C° 0 mm 3 m/s 690 mmHg 35%
    13:00 +30°C° 0 mm 3 m/s 689 mmHg 36%
    14:00 +30°C° 0 mm 3 m/s 689 mmHg 36%
    15:00 +30°C° 0 mm 4 m/s 688 mmHg 36%
    16:00 +29°C° 0 mm 4 m/s 688 mmHg 40%
    17:00 +29°C° 0 mm 3 m/s 688 mmHg 45%
    18:00 +28°C° 0 mm 3 m/s 688 mmHg 49%
    19:00 +26°C° 0 mm 3 m/s 688 mmHg 54%
    20:00 +24°C° 0 mm 2 m/s 689 mmHg 58%
    21:00 +22°C° 0 mm 1 m/s 689 mmHg 63%
    22:00 +21°C° 0 mm 1 m/s 689 mmHg 64%
    23:00 +21°C° 0 mm 1 m/s 689 mmHg 66%

    21 Iunie, Vineri

    Timp Temperatura Precipitaţii Vânt Presiune Umiditate
    00:00 +21°C° 0 mm 1 m/s 689 mmHg 67%
    01:00 +20°C° 0 mm 1 m/s 689 mmHg 68%
    02:00 +19°C° 0 mm 2 m/s 689 mmHg 68%
    03:00 +18°C° 0 mm 2 m/s 689 mmHg 69%
    04:00 +19°C° 0.1 mm 2 m/s 689 mmHg 68%
    05:00 +20°C° 0.1 mm 2 m/s 690 mmHg 68%
    06:00 +20°C° 0.1 mm 2 m/s 690 mmHg 67%
    07:00 +21°C° 0.2 mm 2 m/s 690 mmHg 62%
    08:00 +24°C° 0.2 mm 2 m/s 691 mmHg 56%
    09:00 +25°C° 0.2 mm 2 m/s 691 mmHg 51%
    10:00 +25°C° 0.2 mm 3 m/s 691 mmHg 51%
    11:00 +25°C° 0.2 mm 3 m/s 691 mmHg 51%
    12:00 +26°C° 0.2 mm 3 m/s 691 mmHg 51%
    13:00 +25°C° 0 mm 2 m/s 691 mmHg 52%
    14:00 +25°C° 0 mm 2 m/s 691 mmHg 53%
    15:00 +25°C° 0 mm 2 m/s 690 mmHg 55%
    16:00 +25°C° 0 mm 2 m/s 691 mmHg 56%
    17:00 +25°C° 0 mm 1 m/s 691 mmHg 57%
    18:00 +25°C° 0 mm 1 m/s 691 mmHg 59%
    19:00 +24°C° 0 mm 1 m/s 691 mmHg 62%
    20:00 +23°C° 0 mm 1 m/s 691 mmHg 65%
    21:00 +22°C° 0 mm 1 m/s 691 mmHg 68%
    22:00 +21°C° 0 mm 1 m/s 691 mmHg 70%
    23:00 +20°C° 0 mm 2 m/s 691 mmHg 71%
    Arată mai mult